Regional Weather Roundup
Issued by NWS Wakefield, VA

Home | Current Version | Previous Version | Text Only | Print | Product List | Glossary On
Versions: 1 2 3 4 5 6 7 8 9 10 11 12 13 14 15 16 17 18 19 20 21 22 23 24 25 26 27 28 29 30 31 32 33 34 35 36 37 38 39 40 41 42 43 44 45 46 47 48 49 50
000
ASUS41 KAKQ 301915
RWRAKQ

REGIONAL WEATHER ROUNDUP
NATIONAL WEATHER SERVICE WAKEFIELD VA
300 PM EDT SAT JUL 30 2016

Note: "fair" indicates few or no clouds below 12,000 feet with no
significant weather and/or obstructions to visibility. * = Denotes
station may not report precipitation (e.g., rain,snow,etc.),
thunder or fog.

VAZ042-051-052>054-056-302000-
NORTHERN VIRGINIA

CITY           SKY/WX    TMP DP  RH WIND       PRES   REMARKS
WASH NATIONAL  FAIR      88  73  61 S14       29.93F HX  95
DULLES         FAIR      85  72  65 SE15G21   29.92F
FORT BELVOIR   FAIR      88  72  58 SE13G18   29.93F
QUANTICO       FAIR      86  74  67 S13       29.94
FREDERICKSBRG*   N/A     88  75  65 S10       29.93F HX  97
STAFFORD*      PTSUNNY   86  72  63 S7        29.98F
WARRENTON      PTSUNNY   88  70  55 S7        29.94S
CULPEPER*      FAIR      83  75  75 SE3       29.94F
MANASSAS*      PTSUNNY   86  73  66 S13       29.93F
LEESBURG*      FAIR      90  75  62 S20G25    29.93F HX 100
WINCHESTER     TSTM      82  72  69 S8        29.92F
FRONT ROYAL*   FAIR      88  75  66 SE7       29.90F HX  97
LURAY*         NOT AVBL
$$

VAZ048-049-060>072-079>083-302000-
CENTRAL AND SOUTH CENTRAL VIRGINIA

CITY           SKY/WX    TMP DP  RH WIND       PRES   REMARKS
RICHMOND       PTSUNNY   76  74  93 E8        29.96F
CHESTERFIELD*  FAIR      79  64  61 E5        29.97F
PETERSBURG*    FAIR      80  80  98 E8        29.97F
HANOVER        FAIR      80  72  76 VRB6      29.98F
TAPPAHANNOCK*  FAIR      79  76  91 SE7       29.98F
QUINTON*       CLOUDY    75  75  99 E7        29.97S
CHARLOTTSVILLE RAIN      81  75  82 VRB6      29.93F
GORDONSVILLE*  FAIR      87  75  68 S8        29.94S HX  97
ORANGE*          N/A     86  73  66 E9G16     29.95F THUNDER
LOUISA*        FAIR      90  77  66 SE12      29.95S HX 102
BUMPASS*       FAIR      86  75  71 SE6       29.95F
FARMVILLE*     CLOUDY    76  75  96 SE5       29.94F THUNDER
CREWE*         NOT AVBL
FORT PICKETT*  MOCLDY    80  79  96 NE5       29.97S
CHASE CITY*    FAIR      91  73  55 S3        29.94S HX 100
CLARKSVILLE*   MOCLDY    90  73  58 S7        29.92F HX  98
SOUTH HILL*    CLOUDY    81  78  91 NE3       29.99F
LAWRENCEVILLE* FAIR      83  77  81 NE7       29.94F
EMPORIA*       CLOUDY    73  73 100 NE5       29.96F
$$

VAZ088>098-302000-
SOUTHEAST VIRGINIA

CITY           SKY/WX    TMP DP  RH WIND       PRES   REMARKS
NORFOLK        TSTM      80  75  84 E8        29.98R
VIRGINIA BEACH CLOUDY    87  73  62 SE14      29.98R THUNDER
NORFOLK NAVAL  TSTM      75  72  90 W18G25    30.02R VSB 1/2
WEST POINT*    FAIR      73  72  94 E6        29.97F
SALUDA*        CLOUDY    78  77  96 SE3       29.97F
NEWPORT NEWS   TSTM      80  75  84 SE8       29.99R
LANGLEY AFB    TSTM      81  75  83 S17       30.00R
FORT EUSTIS    TSTM      82  76  81 E9        29.97R
WILLIAMSBURG*  PTSUNNY   81  79  94 CALM      30.00R
HR EXEC AP*    MOCLDY    75  72  88 E8        30.00R THUNDER
FRANKLIN*      TSTM      76  71  86 NW12G24   29.99R
US460-WAKEFLD  LGT RAIN  72  71  97 CALM      29.98F FOG
$$

VAZ020-022-025-037-045-302000-
WEST CENTRAL AND SOUTHWEST VIRGINIA

CITY           SKY/WX    TMP DP  RH WIND       PRES   REMARKS
STAUNTON*      FAIR      87  69  54 S10       29.96F
WAYNESBORO*    FAIR      88  66  47 W9G16     29.97F
HOT SPRINGS VA NOT AVBL
LYNCHBURG      FAIR      86  72  62 VRB6      29.97F
DANVILLE       FAIR      90  72  55 SW7       29.94F HX  97
SOUTH BOSTON*  FAIR     N/A N/A N/A SW7       29.93F
MARTINSVILLE   FAIR      84  66  55 NW15G28   30.01R THUNDER
ROANOKE        PTSUNNY   87  69  54 W5        29.99S
BLACKSBURG     FAIR      83  71  66 CALM      30.07F
DUBLIN*        FAIR      86  67  52 W7        30.05F
MARION*        PTSUNNY   81  69  66 W12G18    30.11F
HILLSVILLE*    CLOUDY    79  69  73 CALM      30.08F
RICHLANDS*     FAIR      77  70  79 SW7       30.10F
WISE*          FAIR     N/A N/A N/A SW8       30.11F
ABINGDON*      FAIR      82  70  66 NW7       30.08F
$$

MDZ021>025-VAZ099-100-302000-
SOUTHERN MARYLAND AND THE DELMARVA PENINSULA

CITY           SKY/WX    TMP DP  RH WIND       PRES   REMARKS
PATUXENT RIVER CLOUDY    84  70  62 SE9G20    29.96F
BAY BRIDGE APT CLOUDY    88  72  58 S13G21    29.95F
LEONARDTOWN    CLOUDY    82  72  69 SE13      29.98F
DOVER          CLOUDY    85  79  82 SE17G23   29.94F HX  98
GEORGETOWN     CLOUDY    85  65  51 SE13      29.99F
EASTON         PTSUNNY   88  72  58 S16G23    29.99F
CAMBRIDGE      CLOUDY    82  68  61 SE13      29.96F
SALISBURY      MOSUNNY   82  68  61 SE13G20   29.98F
OCEAN CITY     CLOUDY    83  72  69 SE7       30.00F
WALLOPS ISLAND FAIR      85  69  58 SE13      30.00F
ACCOMACK*      FAIR      82  70  65 SE3       29.99S
$$

NCZ012>017-030>032-302000-
NORTH CENTRAL AND EASTERN NORTH CAROLINA

CITY           SKY/WX    TMP DP  RH WIND       PRES   REMARKS
ROANOKE RAPIDS MOCLDY    90  77  66 S6        29.92F HX 102
RALEIGH        PTSUNNY   93  73  52 W12G18    29.93F HX 102
ELIZABETH CITY TSTM      79  72  79 S8G22     30.00R
AHOSKIE*       SUNNY     86  79  79 SE5       29.93R HX 100
EDENTON*       LGT RAIN N/A N/A N/A SE12      29.97S
CURRITUCK*     CLOUDY    84  76  76 SE6       29.99R
KILL DEVIL HLS LGT RAIN  84  78  82 SE7       29.99S
MANTEO         LGT RAIN  80  78  94 S6        30.00S
CAPE HATTERAS  CLOUDY    86  78  77 S8        29.98F HX  98
TARBORO*       MOCLDY    89  75  64 S5        29.93S HX  99
GOLDSBORO      MOSUNNY   98  70  39 SW23      29.90F HX 105
WASHINGTON     LGT RAIN  76  73  88 E10       29.94R
GREENVILLE     CLOUDY    81  77  89 SE3       29.94F
NEW BERN       CLOUDY    80  71  74 S17G29    29.98R THUNDER
WILMINGTON     MOSUNNY   90  75  61 S9        29.96F HX 100
$$

VAZ048-302000-
ELSEWHERE

CITY           SKY/WX    TMP DP  RH WIND       PRES   REMARKS
HARRISBURG PA  LGT RAIN  76  74  93 E8        29.96R
BALTIMORE      CLOUDY    79  72  79 SE8       29.93F
ANNAPOLIS      CLOUDY     0   0 100 CALM      29.94F
ANDREWS AFB    FAIR      87  73  63 S12G21    29.93F
PHILADELPHIA   CLOUDY    84  68  58 S14       29.97S
GREENSBORO     MOSUNNY   92  67  43 VRB3      29.96F HX  95
ROCKY MOUNT    CLOUDY    94  74  52 SW13G21   29.91F HX 104
$$

VAZ100-302000-
MARINE

STATION/POSITION TIME  TEMP    WIND        PRES    WAVE   SWELL
                       AIR SEA DIR/SP/G            HT/PER HT/PER
                 (UTC) (F)     (DEG/KT/KT) (MB)    (FT/S) (FT/S)
BRANDYWINE LGT   1800   78     170/ 14/ 16   N/A
CAPE MAY NJ      1800   80 75  140/ 10/ 14 1015.6F
LEWES DE         1800   83 74  150/  8/ 11 1015.9F
OCEAN-CITY-INLET 1800   81 79  180/  6/  8 1016.8F
WACHAPREAGUE VA  1800   82 86  100/  7/ 11 1015.7F
THOMAS POINT MD  1900   83 84  170/ 23/ 26 1015.0F
GOOSES REEF MD   1900   85 84  170/ 17/ 21 1015.0F   2/ 3
COVE POINT MD    1800   82     180/ 16/ 20 1015.7F
SOLOMONS ISLAND  1800   82 85  160/ 11/ 16   N/A
BISHOPS HEAD MD  1800   84     130/ 14/ 19 1015.5F
PINEY POINT MD   1800          160/ 15/ 18   N/A
POTOMAC MD       1900   83 84  180/ 14/ 16 1013.7F   2/ 3
CAMBRIDGE MD     1800   84 87  170/  6/ 11 1014.4F
LEWISETTA VA     1800   83 86  150/  7/ 10 1014.8F
RAPPAHANNOCK LGT 1800          120/ 12/ 13 1015.9F
STINGRAY PT      1800   84 87   70/ 10/ 12 1015.9F   1/ 3
YORK RVR RNG VA  1800   82     140/ 17/ 19 1014.6F
YORKTOWN VA      1800   83 85  100/ 13/ 17 1014.6F
JAMESTOWN VA     1900   80 89   10/  4/  4   N/A     0
DOMINION TERM VA 1800   83      80/ 15/ 20 1014.5F
KIPTOPEKE VA     1800      81  120/ 12/ 15   N/A
CHES BAY BRIDGE  1800   81 80   90/ 12/ 17 1015.0F
CAPE HENRY VA    1800   81     120/ 10/ 15   N/A
WILLOUBY STN VA  1800   82     100/ 16/ 18   N/A
CAPE HENRY BUOY  1812      82                N/A     2/ 7
1ST LANDING BUOY 1900   81 81  150/ 14/ 16 1015.1R   2/ 3
CAPE CHARLES BUO 1826      79                N/A     2/ 7
OFFSHORE WE BUOY 1821      83                N/A     3/ 7
64NM E OF VA BCH 1850   81 83  130/ 10/ 14 1016.0R   3/ 7   2/ 7
DUCK PIER NC     1800   82 81  110/ 14/ 15 1014.6F
44100 DUCK FRF   1805      83                N/A     2/ 7
44056 DUCK FRF   1811      82                N/A     2/ 7
OREGON INLET NC  1800   82 76  100/  6/  8 1015.8R
HATTERAS NC      1800   83 83  160/  5/  7 1015.9R
DIAMOND SHLS NC  1850   85 85  180/ 12/ 14 1015.4F   2/ 6   2/ 6
CAPE LOOKOUT NC  1800   86     200/ 12/ 14 1014.9F
$$



USA.gov is the U.S. government's official web portal to all federal, state and local government web resources and services.